Donatas Kazlauskas

Chefscout - Zalgiris
4 Nov 2027
Donnerstag
Verarbeitung

Persönlichkeit

Anpassungsfähigkeit (18) Ehrgeiz (2) Kontroverse (3) Loyalität (15) Druck (18) Professionalität (9) Fairness (20) Temperament (4)

Profil

Trainerstil Demokratisch
Lizenz Kontinentale Pro
Entschlossenheit 10
Menschenführung 9
Motivation 8
Disziplin 9
Arbeitszufriedenheit
100%
Ermüdung
0%
Rolle Chefscout
Gehalt 56.8K p/W
Vertrag 14.03.2029

Leistung

Verhalten Gut
Trainingseffektivität
29%
Spielerentwicklung
35%
Verletzungsprävention
30%
Taktische Umsetzung
35%

Letzte Ereignisse

Nahm an einer Scouting-Besprechung teil jetzt
Empfahl ein Transferziel jetzt
Empfahl ein Transferziel jetzt
Spieler begutachtet 7T her
Spieler begutachtet 7T her
Spieler begutachtet 7T her
Spieler begutachtet 7T her
Spieler begutachtet 7T her

Aktuell beobachtet

182
Spieler Verein Status Fähigkeit Vertrauen Beobachtet Zuletzt beobachtet Letzte Stimme
Enzo Avaro Odd Aktiv 97 / 112 40% 2 03.11.2027 -
Sebastián Cocimano Nueva Chicago Aktiv 115 / 110 40% 2 03.11.2027 -
Lucio Castillo Colegiales Aktiv 92 / 117 40% 1 02.11.2027 -
Adalberto Peñaranda Deportivo Tachira Aktiv 123 / 113 40% 3 31.10.2027 -
Enzo Martínez Almagro Aktiv 114 / 109 40% 2 31.10.2027 -
Edarlyn Reyes Arsenal Tula Aktiv 120 / 117 40% 2 30.10.2027 -
Luca Franco Arsenal Aktiv 90 / 98 40% 2 30.10.2027 -
Lucas Carrizo Plaza Colonia Aktiv 117 / 106 40% 2 28.10.2027 -
Jonás Acevedo Instituto Aktiv 117 / 114 40% 2 27.10.2027 -
Matías Sosa Arsenal Aktiv 130 / 108 40% 1 27.10.2027 -
Gamid Agalarov Dinamo Makhachkala Aktiv 121 / 105 40% 3 26.10.2027 -
Lisandro Cabrera Maipú Aktiv 122 / 127 40% 2 26.10.2027 -
Agustín Módica Gimnasia y Esgrima Aktiv 129 / 120 40% 2 25.10.2027 -
Santiago Sala Güemes Aktiv 94 / 112 40% 4 24.10.2027 -
Luca Martínez Dupuy Godoy Cruz Aktiv 116 / 119 40% 2 23.10.2027 -
Kevin Méndez Dinamo Tbilisi Aktiv 117 / 112 40% 1 23.10.2027 -
Richard Figueroa Deportivo Lara Aktiv 93 / 98 40% 3 22.10.2027 -
Brian Mansilla Akhmat Grozny Aktiv 124 / 119 40% 2 22.10.2027 -
Alan Bonansea Colón Aktiv 114 / 101 40% 2 21.10.2027 -
Marco Miori Alvarado Aktiv 131 / 120 40% 1 21.10.2027 -
Jonathan Cañete Portuguesa Aktiv 124 / 121 40% 2 20.10.2027 -
Rauno Sappinen Flora Aktiv 110 / 110 40% 1 20.10.2027 -
Juan Sebastián Herrera Deportivo La Guaira Aktiv 98 / 106 40% 4 19.10.2027 -
Gonzalo Asis Almagro Aktiv 128 / 118 40% 2 19.10.2027 -
Augusto Berrondo Tristán Suárez Aktiv 129 / 120 40% 2 19.10.2027 -
Santiago Apa All Boys Aktiv 98 / 103 40% 1 19.10.2027 -
Carlos Cantillo Jaguares Aktiv 103 / 101 40% 3 18.10.2027 -
Alejo Dramisino Atlanta Aktiv 107 / 112 40% 1 18.10.2027 -
Tomás Ferreyra Defensores Unidos Aktiv 107 / 110 40% 2 16.10.2027 -
Juan Pablo Barinaga Patronato Aktiv 132 / 116 40% 1 16.10.2027 -
Gastón Moreyra Almirante Brown Aktiv 115 / 105 40% 2 14.10.2027 -
Blas Armoa Gimnasia y Esgrima Aktiv 99 / 115 40% 1 11.10.2027 -
Nicolás Cordero Aldosivi Aktiv 111 / 111 40% 1 11.10.2027 -
Juan Rocca Gimnasia y Tiro Aktiv 104 / 116 40% 1 10.10.2027 -
Radivoj Bosić Vitebsk Aktiv 101 / 105 40% 1 10.10.2027 -
Federico Bisanz Atlanta Aktiv 122 / 107 40% 1 10.10.2027 -
Yegor Kortsov Dinamo Brest Aktiv 112 / 109 40% 1 07.10.2027 -
Javier Martínez Almirante Brown Aktiv 91 / 97 40% 1 07.10.2027 -
Irakli Kvilitaia Tskhinvali Aktiv 127 / 100 40% 1 05.10.2027 -
Renzo Reynaga Patronato Aktiv 122 / 120 40% 1 04.10.2027 -
Iñaki Larthirigoyen San Telmo Aktiv 122 / 112 40% 1 17.09.2027 -
Brahian Cuello Unión de Santa Fe Aktiv 106 / 106 40% 1 17.09.2027 -
Julián Cosi Madryn Aktiv 123 / 104 40% 1 14.09.2027 -
Bruno Leyes Godoy Cruz Aktiv 108 / 121 40% 1 14.09.2027 -
Nicolás Heiz Maipú Aktiv 101 / 107 40% 1 12.09.2027 -
Luis Olivera Defensores Unidos Aktiv 98 / 115 40% 1 08.09.2027 -
Jesús Vargas Metropolitanos Aktiv 122 / 109 40% 1 07.09.2027 -
Sebastián Jaurena San Martín SJ Aktiv 109 / 117 40% 1 07.09.2027 -
Richard Celis Zamora Aktiv 116 / 116 40% 1 06.09.2027 -
Erickson Gallardo Zamora Aktiv 129 / 119 40% 1 04.09.2027 -
Gustavo Viera Cerro Largo Aktiv 118 / 103 40% 1 02.09.2027 -
Brian Orosco Godoy Cruz Aktiv 133 / 108 40% 1 02.09.2027 -
Ramiro Balbuena Nueva Chicago Aktiv 104 / 101 40% 1 01.09.2027 -
Lucas Carrizo Plaza Colonia Verloren 96 / 103 40% 1 25.08.2027 -
Duvan Rangel La Equidad Aktiv 122 / 124 40% 1 25.08.2027 -
Diogo Guzmán Montevideo City Torque Aktiv 120 / 111 40% 1 18.08.2027 -
Luca Vignali Virtus Entella Aktiv 131 / 121 40% 1 10.08.2027 -
Kane Wilson Milton Keynes Dons Aktiv 111 / 120 40% 1 09.08.2027 -
Caylan Vickers Burton Albion Aktiv 117 / 108 40% 1 09.08.2027 -
Kyle John Port Vale Aktiv 117 / 118 40% 2 07.08.2027 -
Sam Mather Bromley Aktiv 110 / 115 40% 1 07.08.2027 -
Malik Mothersille Stockport County Aktiv 107 / 122 40% 1 06.08.2027 -
Kelly Saravanan Salford City Aktiv 112 / 111 40% 1 06.08.2027 -
Jack Senior Crawley Town Aktiv 100 / 89 40% 1 04.08.2027 -
Connor Ogilvie Bristol Rovers Aktiv 110 / 108 40% 1 30.07.2027 -
Darragh Burns Grimsby Town Aktiv 96 / 95 40% 1 28.07.2027 -
Josh Dacres-Cogley Stockport County Aktiv 124 / 120 40% 1 28.07.2027 -
Shayne Lavery Cambridge United Aktiv 89 / 116 40% 4 27.07.2027 -
George Byers Port Vale Aktiv 131 / 127 40% 1 27.07.2027 -
Velemseni Ndwandwe Golden Arrows Aktiv 93 / 112 40% 1 26.07.2027 -
Ben Garrity Port Vale Aktiv 116 / 106 40% 1 25.07.2027 -
Ariel Schuartzman Torpedo Kutaisi Aktiv 98 / 115 40% 1 19.07.2027 -
Mattia Vitale Salernitana Aktiv 132 / 118 40% 1 19.07.2027 -
Kees de Boer Salernitana Aktiv 107 / 105 40% 1 18.07.2027 -
Jacopo Desogus AlbinoLeffe Aktiv 124 / 119 40% 1 17.07.2027 -
Simone Potop AlbinoLeffe Aktiv 108 / 92 40% 1 17.07.2027 -
Corrado Riviera Renate Aktiv 89 / 116 40% 1 16.07.2027 -
Giacomo Zecca Torres Aktiv 96 / 114 40% 1 15.07.2027 -
Martin Kramarič Krylya Sovetov Aktiv 106 / 119 40% 1 13.07.2027 -
Alexandr Ektov Nizhniy Novgorod Aktiv 107 / 110 40% 1 13.07.2027 -
Georgy Melkadze Akhmat Grozny Aktiv 122 / 116 40% 6 23.06.2027 -
Fortune Bassey Djoliba Aktiv 106 / 93 40% 1 23.06.2027 -
Amine Benchaib Kauno Zalgiris Aktiv 93 / 109 44% 1 03.06.2027 -
Goga Kobiashvili Veres Verhandlung 92 / 92 66% 1 01.06.2027 Befürworten
Shota Shekiladze Akhmat Grozny Aktiv 110 / 110 66% 1 01.06.2027 Befürworten
Mattia Iori Lumezzane Aktiv 111 / 99 40% 1 31.05.2027 -
Martin Sekulić Ural Aktiv 124 / 116 40% 5 29.05.2027 -
Silvio Merkaj Vicenza Aktiv 132 / 119 40% 1 29.05.2027 -
Francesco Petito Dolomiti Bellunesi Aktiv 81 / 92 40% 1 29.05.2027 -
Vyacheslav Grulev Nizhniy Novgorod Aktiv 111 / 105 40% 4 26.05.2027 -
Gilson Benchimol Akron Aktiv 108 / 115 40% 7 25.05.2027 -
Vladislav Sarveli Nizhniy Novgorod Aktiv 121 / 105 40% 8 25.05.2027 -
Brayan León Mamelodi Sundowns Aktiv 136 / 103 40% 4 25.05.2027 -
Chinedu Geoffrey Krylya Sovetov Aktiv 119 / 114 40% 2 25.05.2027 -
Mikhail Ignatov Sochi Aktiv 117 / 112 40% 5 22.05.2027 -
Simone Mazzocchi Cosenza Aktiv 125 / 114 40% 1 22.05.2027 -
Hany Mukhtar Spezia Aktiv 143 / 123 40% 1 22.05.2027 -
John Yeboah Venezia Aktiv 99 / 130 40% 1 22.05.2027 -
Tenton Yenne Baltika Aktiv 113 / 116 40% 4 19.05.2027 -
Ettore Gliozzi Mantova Aktiv 113 / 130 40% 1 19.05.2027 -
Artem Maximenko Nizhniy Novgorod Aktiv 121 / 109 40% 5 18.05.2027 -
Mattia Bortolussi Padova Aktiv 131 / 125 40% 1 17.05.2027 -
Ruslan Apekov Torpedo Moscow Aktiv 114 / 107 40% 3 16.05.2027 -
Marco Tumminello Benevento Aktiv 119 / 105 40% 1 16.05.2027 -
Vladimir Khubulov Dinamo Makhachkala Aktiv 105 / 103 40% 4 15.05.2027 -
Amur Kalmykov Spartak Kostroma Aktiv 121 / 99 40% 2 15.05.2027 -
Dmitry Tsypchenko Torpedo Moscow Aktiv 96 / 98 40% 6 13.05.2027 -
Emanuele Schimmenti Potenza Aktiv 125 / 110 40% 1 13.05.2027 -
Maksim Samorodov Akhmat Grozny Aktiv 133 / 122 40% 6 11.05.2027 -
Mandla Mahlangu Ajax Cape Town Aktiv 88 / 100 40% 5 11.05.2027 -
Evidence Makgopa Orlando Pirates Aktiv 137 / 102 40% 5 11.05.2027 -
Slobodan Tedić Akron Aktiv 104 / 108 40% 6 09.05.2027 -
Etiosa Ighodaro Kaizer Chiefs Aktiv 91 / 115 40% 4 06.05.2027 -
Migran Ageyan Ufa Aktiv 107 / 97 40% 2 03.05.2027 -
David Davidyan Rotor Aktiv 87 / 107 40% 1 01.05.2027 -
François Kamano Sochi Aktiv 111 / 113 40% 6 28.04.2027 -
Andrey Okladnikov Yenisey Aktiv 90 / 83 40% 1 27.04.2027 -
Ekain Orobengoa Real Sociedad Aktiv 87 / 114 40% 1 25.04.2027 -
Lewis Morgan SuperSport United Aktiv 136 / 134 40% 4 22.04.2027 -
Everton Bala Levski Aktiv 128 / 129 40% 2 21.04.2027 -
Malick Traoré Onze Createurs Aktiv 100 / 100 40% 2 19.04.2027 -
Kamran Aliev SKA Khabarovsk Aktiv 109 / 106 40% 2 16.04.2027 -
Vladislav Yakovlev Volga Aktiv 97 / 93 40% 2 15.04.2027 -
Amar Rahmanović Krylya Sovetov Aktiv 106 / 106 40% 2 14.04.2027 -
Surkhaikhan Abdullaev KAMAZ Aktiv 86 / 99 40% 1 14.04.2027 -
Dmitry Kamenschikov Arsenal Tula Aktiv 101 / 95 40% 4 08.04.2027 -
Danil Karpov KAMAZ Aktiv 97 / 89 40% 3 06.04.2027 -
Alexandr Khokhlachev Rotor Aktiv 108 / 94 40% 2 02.04.2027 -
Rashid Magomedov Neftekhimik Aktiv 107 / 95 40% 1 02.04.2027 -
Jacobo Alcalde SKA Khabarovsk Aktiv 96 / 97 40% 2 28.03.2027 -
Bertrand Fourrier Ural Aktiv 113 / 101 40% 2 28.03.2027 -
Aaron Drinan Swindon Town Aktiv 122 / 101 40% 1 25.03.2027 -
Ali Youssef Apollon Aktiv 134 / 113 40% 1 24.03.2027 -
Juan Cejas Ethnikos Achnas Aktiv 112 / 106 40% 1 24.03.2027 -
Jerome Karelse Golden Arrows Aktiv 81 / 94 40% 1 23.03.2027 -
Nikita Simdyankin KDV Tomsk Aktiv 91 / 78 40% 1 21.03.2027 -
Daniil Agureev Amkar Aktiv 81 / 80 40% 1 15.03.2027 -
Kirill Bogdanets Volna Aktiv 91 / 94 40% 1 07.03.2027 -
Alexandr Dolgov Amkar Aktiv 94 / 92 40% 2 06.03.2027 -
Pedro Marques Apollon Aktiv 105 / 116 40% 2 02.03.2027 -
Alexandr Saplinov Volga Aktiv 92 / 99 40% 2 28.02.2027 -
Daniil Kondrakov KDV Tomsk Aktiv 79 / 84 40% 1 20.02.2027 -
Said Aliev Rotor Aktiv 88 / 89 40% 1 14.02.2027 -
Leon Sabua Fakel Aktiv 108 / 94 40% 1 10.02.2027 -
Chinonso Offor Baltika Aktiv 96 / 105 40% 1 08.02.2027 -
Aleksej Golijanin Sokol Aktiv 101 / 95 40% 1 07.02.2027 -
Alexandr Yushin Torpedo Moscow Aktiv 100 / 107 40% 1 05.02.2027 -
Temirkan Sundukov Dinamo Makhachkala Aktiv 104 / 112 40% 1 28.01.2027 -
Ilja Agapov Ufa Aktiv 107 / 118 40% 1 28.01.2027 -
Eddy Ozobic Inter Aktiv 122 / 120 40% 1 25.01.2027 -
Tomas Švedkauskas Kauno Zalgiris Aktiv 84 / 97 41% 1 18.01.2027 -
Anton Tolordava Kauno Zalgiris Aktiv 94 / 102 41% 1 05.01.2027 -
Stefan Kovač Baltika Aktiv 117 / 117 40% 2 02.01.2027 -
Darko Todorović Fakel Aktiv 102 / 112 40% 3 02.01.2027 -
Kristijan Bistrović Akron Aktiv 112 / 114 40% 2 30.12.2026 -
Stefan Lončar Akron Aktiv 101 / 116 40% 2 28.12.2026 -
Ivan Komarov Rostov Aktiv 122 / 107 40% 2 27.12.2026 -
Ugochukwu Iwu Rubin Aktiv 122 / 115 40% 1 27.12.2026 -
Léo Cordeiro Ural Aktiv 107 / 116 40% 2 25.12.2026 -
Robert Mejía Orenburg Aktiv 123 / 118 40% 1 25.12.2026 -
Bojan Roganović Torpedo Moscow Aktiv 95 / 96 40% 1 24.12.2026 -
Artem Simonyan Rotor Aktiv 92 / 103 40% 1 17.12.2026 -
Houssem Mrezigue Dinamo Makhachkala Aktiv 126 / 120 40% 2 16.12.2026 -
Artem Makarchuk Sochi Aktiv 115 / 111 40% 2 15.12.2026 -
Maxime Sivis Orenburg Aktiv 119 / 119 40% 1 15.12.2026 -
Vyacheslav Yakimov Fakel Aktiv 114 / 103 40% 2 13.12.2026 -
Mario Ćurić Torpedo Moscow Aktiv 102 / 102 40% 1 13.12.2026 -
Đorđe Pantelić Spartak Kostroma Aktiv 93 / 101 40% 2 12.12.2026 -
Roman Yezhov Sochi Aktiv 100 / 101 40% 2 12.12.2026 -
Guljigit Alykulov Dinamo Minsk Aktiv 99 / 113 40% 1 11.12.2026 -
Ilja Vakhania Krasnodar Aktiv 108 / 112 40% 1 11.12.2026 -
Miroslav Bogosavac Akhmat Grozny Aktiv 133 / 113 40% 1 10.12.2026 -
Andrea Chukanov Yenisey Aktiv 89 / 106 40% 1 07.12.2026 -
Eldar Ćivić Baltika Aktiv 132 / 124 40% 2 02.12.2026 -
Nikolay Giorgobiani Fakel Aktiv 124 / 106 40% 1 30.11.2026 -
Alexandr Lomovitskiy Torpedo-BelAZ Aktiv 95 / 115 40% 2 28.11.2026 -
Lechi Sadulaev Akhmat Grozny Aktiv 118 / 123 40% 1 21.11.2026 -
Igor Dmitriev Spartak Moscow Aktiv 123 / 127 40% 1 20.11.2026 -
Arsen Adamov Akhmat Grozny Aktiv 118 / 123 40% 1 18.11.2026 -
Kevin Pina Krasnodar Aktiv 122 / 120 40% 1 17.11.2026 -
Valdas Paulauskas Kauno Zalgiris Aktiv 85 / 95 41% 1 24.08.2026 -
Lukas Simkus Stumbras Aktiv 98 / 110 41% 1 17.08.2026 -